Epoch 2023 Feb. 25.0 TT = JDT 2460000.5 T 2024 Jan. 17.35462 TT Rudenko q 7.6965273 (2000.0) P Q z +0.0012432 Peri. 246.16270 -0.33643857 +0.93790641 +/-0.0000107 Node 6.34808 -0.30083134 -0.02201145 e 0.9904314 Incl. 49.84081 -0.89236180 -0.34618936 >From 65 observations 2022 Mar. 2-2023 Apr. 17, mean residual 0".5.
m1 = 6.0 + 5 logΔ + 10.0 log r